Hourly Weather Belfast

Today, 12 August, Wednesday

Time Temperature Precipitation Wind Pressure Humidity
00:00 +16°C° 0 mm 2 mps 760 mmHg 94%
01:00 +16°C° 0 mm 2 mps 760 mmHg 93%
02:00 +16°C° 0 mm 2 mps 760 mmHg 93%
03:00 +16°C° 0 mm 2 mps 759 mmHg 93%
04:00 +16°C° 0 mm 3 mps 759 mmHg 93%
05:00 +16°C° 0 mm 3 mps 759 mmHg 92%
06:00 +16°C° 0 mm 3 mps 759 mmHg 92%
07:00 +18°C° 0 mm 3 mps 760 mmHg 90%
08:00 +19°C° 0 mm 3 mps 760 mmHg 87%
09:00 +20°C° 0 mm 3 mps 760 mmHg 85%
10:00 +21°C° 0 mm 4 mps 760 mmHg 83%
11:00 +22°C° 0 mm 4 mps 760 mmHg 82%
12:00 +23°C° 0 mm 4 mps 760 mmHg 80%
13:00 +23°C° 0 mm 4 mps 760 mmHg 80%
14:00 +23°C° 0 mm 4 mps 760 mmHg 80%
15:00 +23°C° 0 mm 4 mps 759 mmHg 80%
16:00 +22°C° 0 mm 4 mps 759 mmHg 82%
17:00 +22°C° 0 mm 4 mps 759 mmHg 83%
18:00 +21°C° 0 mm 5 mps 759 mmHg 85%
19:00 +20°C° 0.1 mm 4 mps 759 mmHg 89%
20:00 +18°C° 0.1 mm 4 mps 759 mmHg 92%
21:00 +17°C° 0.1 mm 4 mps 760 mmHg 96%
22:00 +17°C° 0.2 mm 4 mps 759 mmHg 96%
23:00 +15°C° 0.2 mm 4 mps 759 mmHg 96%

Tomorrow, 13 August, Thursday

Time Temperature Precipitation Wind Pressure Humidity
00:00 +15°C° 0.2 mm 4 mps 759 mmHg 96%
01:00 +15°C° 0.1 mm 4 mps 759 mmHg 96%
02:00 +15°C° 0.1 mm 4 mps 759 mmHg 96%
03:00 +16°C° 0.1 mm 3 mps 759 mmHg 96%
04:00 +17°C° 0.6 mm 3 mps 759 mmHg 96%
05:00 +17°C° 0.6 mm 3 mps 759 mmHg 97%
06:00 +17°C° 0.6 mm 3 mps 759 mmHg 97%
07:00 +18°C° 0.7 mm 3 mps 759 mmHg 96%
08:00 +19°C° 0.7 mm 4 mps 759 mmHg 94%
09:00 +19°C° 0.7 mm 4 mps 759 mmHg 93%
10:00 +20°C° 0.1 mm 4 mps 759 mmHg 90%
11:00 +21°C° 0.1 mm 3 mps 759 mmHg 86%
12:00 +22°C° 0.1 mm 3 mps 759 mmHg 82%
13:00 +22°C° 0 mm 3 mps 759 mmHg 82%
14:00 +22°C° 0 mm 3 mps 759 mmHg 81%
15:00 +23°C° 0 mm 4 mps 759 mmHg 80%
16:00 +22°C° 0 mm 3 mps 759 mmHg 82%
17:00 +22°C° 0 mm 3 mps 759 mmHg 84%
18:00 +21°C° 0 mm 3 mps 759 mmHg 85%
19:00 +20°C° 0 mm 3 mps 759 mmHg 88%
20:00 +18°C° 0 mm 3 mps 759 mmHg 91%
21:00 +17°C° 0 mm 3 mps 760 mmHg 94%
22:00 +17°C° 0 mm 3 mps 760 mmHg 94%
23:00 +16°C° 0 mm 3 mps 760 mmHg 94%

Day after tomorrow, 14 August, Friday

Time Temperature Precipitation Wind Pressure Humidity
00:00 +16°C° 0 mm 3 mps 760 mmHg 95%
01:00 +16°C° 0 mm 3 mps 759 mmHg 95%
02:00 +16°C° 0 mm 3 mps 759 mmHg 95%
03:00 +15°C° 0 mm 2 mps 759 mmHg 96%
04:00 +16°C° 0 mm 2 mps 759 mmHg 96%
05:00 +16°C° 0 mm 2 mps 759 mmHg 96%
06:00 +16°C° 0 mm 2 mps 759 mmHg 96%
07:00 +17°C° 0 mm 3 mps 760 mmHg 92%
08:00 +18°C° 0 mm 3 mps 760 mmHg 88%
09:00 +19°C° 0 mm 3 mps 760 mmHg 85%
10:00 +20°C° 0 mm 3 mps 760 mmHg 82%
11:00 +20°C° 0 mm 3 mps 760 mmHg 80%
12:00 +21°C° 0 mm 3 mps 760 mmHg 77%
13:00 +21°C° 0 mm 3 mps 760 mmHg 77%
14:00 +21°C° 0 mm 3 mps 760 mmHg 77%
15:00 +22°C° 0 mm 3 mps 760 mmHg 77%
16:00 +21°C° 0 mm 3 mps 760 mmHg 79%
17:00 +21°C° 0 mm 3 mps 760 mmHg 81%
18:00 +20°C° 0 mm 2 mps 759 mmHg 84%
19:00 +19°C° 0 mm 2 mps 760 mmHg 87%
20:00 +18°C° 0 mm 2 mps 760 mmHg 90%
21:00 +16°C° 0 mm 2 mps 760 mmHg 93%
22:00 +16°C° 0 mm 2 mps 760 mmHg 94%
23:00 +16°C° 0 mm 2 mps 760 mmHg 95%

15 August, Saturday

Time Temperature Precipitation Wind Pressure Humidity
00:00 +16°C° 0 mm 2 mps 760 mmHg 95%
01:00 +15°C° 0 mm 2 mps 760 mmHg 96%
02:00 +15°C° 0 mm 2 mps 760 mmHg 96%
03:00 +15°C° 0 mm 2 mps 760 mmHg 97%
04:00 +15°C° 0 mm 2 mps 760 mmHg 97%
05:00 +15°C° 0 mm 2 mps 760 mmHg 97%
06:00 +15°C° 0 mm 2 mps 760 mmHg 96%
07:00 +16°C° 0 mm 2 mps 760 mmHg 93%
08:00 +17°C° 0 mm 2 mps 760 mmHg 89%
09:00 +18°C° 0 mm 2 mps 761 mmHg 86%
10:00 +19°C° 0 mm 2 mps 761 mmHg 83%
11:00 +19°C° 0 mm 2 mps 760 mmHg 80%
12:00 +20°C° 0 mm 3 mps 760 mmHg 78%
13:00 +20°C° 0 mm 2 mps 760 mmHg 77%
14:00 +21°C° 0 mm 2 mps 760 mmHg 76%
15:00 +21°C° 0 mm 2 mps 760 mmHg 75%
16:00 +20°C° 0 mm 2 mps 760 mmHg 78%
17:00 +20°C° 0 mm 2 mps 759 mmHg 81%
18:00 +19°C° 0 mm 2 mps 759 mmHg 84%
19:00 +19°C° 0 mm 2 mps 759 mmHg 85%
20:00 +19°C° 0 mm 1 mps 759 mmHg 86%
21:00 +18°C° 0 mm 1 mps 759 mmHg 88%
22:00 +17°C° 0.1 mm 2 mps 759 mmHg 89%
23:00 +17°C° 0.1 mm 2 mps 759 mmHg 91%

16 August, Sunday

Time Temperature Precipitation Wind Pressure Humidity
00:00 +17°C° 0.1 mm 2 mps 759 mmHg 92%
01:00 +17°C° 0.2 mm 2 mps 759 mmHg 94%
02:00 +16°C° 0.2 mm 2 mps 758 mmHg 95%
03:00 +16°C° 0.2 mm 3 mps 758 mmHg 97%
04:00 +16°C° 0.3 mm 3 mps 758 mmHg 97%
05:00 +16°C° 0.3 mm 3 mps 758 mmHg 97%
06:00 +16°C° 0.3 mm 3 mps 757 mmHg 97%
07:00 +16°C° 0.2 mm 3 mps 757 mmHg 96%
08:00 +16°C° 0.2 mm 3 mps 757 mmHg 96%
09:00 +15°C° 0.2 mm 4 mps 757 mmHg 96%
10:00 +15°C° 0.5 mm 4 mps 757 mmHg 96%
11:00 +15°C° 0.5 mm 4 mps 757 mmHg 96%
12:00 +16°C° 0.5 mm 3 mps 757 mmHg 97%
13:00 +15°C° 0.2 mm 4 mps 756 mmHg 96%
14:00 +15°C° 0.2 mm 4 mps 756 mmHg 95%
15:00 +15°C° 0.2 mm 4 mps 755 mmHg 95%
16:00 +15°C° 0.1 mm 4 mps 755 mmHg 95%
17:00 +15°C° 0.1 mm 4 mps 755 mmHg 95%
18:00 +15°C° 0.1 mm 4 mps 754 mmHg 95%
19:00 +15°C° 0.1 mm 4 mps 754 mmHg 95%
20:00 +15°C° 0.1 mm 4 mps 754 mmHg 95%
21:00 +14°C° 0.1 mm 4 mps 753 mmHg 95%
22:00 +14°C° 0.1 mm 4 mps 753 mmHg 95%
23:00 +14°C° 0.1 mm 4 mps 753 mmHg 95%

17 August, Monday

Time Temperature Precipitation Wind Pressure Humidity
00:00 +14°C° 0.1 mm 3 mps 752 mmHg 95%
01:00 +14°C° 0 mm 3 mps 752 mmHg 95%
02:00 +14°C° 0 mm 3 mps 752 mmHg 96%
03:00 +14°C° 0 mm 3 mps 751 mmHg 96%
04:00 +15°C° 0.1 mm 2 mps 751 mmHg 97%
05:00 +15°C° 0.1 mm 2 mps 750 mmHg 97%
06:00 +15°C° 0.1 mm 2 mps 750 mmHg 97%
07:00 +16°C° 0 mm 2 mps 750 mmHg 96%
08:00 +17°C° 0 mm 3 mps 750 mmHg 94%
09:00 +17°C° 0 mm 3 mps 750 mmHg 92%
10:00 +18°C° 0 mm 3 mps 750 mmHg 89%
11:00 +19°C° 0 mm 3 mps 749 mmHg 86%
12:00 +19°C° 0 mm 3 mps 749 mmHg 83%
13:00 +20°C° 0.1 mm 4 mps 749 mmHg 81%
14:00 +20°C° 0.1 mm 4 mps 748 mmHg 80%
15:00 +20°C° 0.1 mm 5 mps 748 mmHg 78%
16:00 +20°C° 0.1 mm 4 mps 748 mmHg 81%
17:00 +19°C° 0.1 mm 4 mps 748 mmHg 85%
18:00 +19°C° 0.1 mm 4 mps 747 mmHg 88%
19:00 +18°C° 0.6 mm 4 mps 747 mmHg 91%
20:00 +17°C° 0.6 mm 4 mps 747 mmHg 93%
21:00 +15°C° 0.6 mm 4 mps 747 mmHg 96%
22:00 +15°C° 0.2 mm 4 mps 747 mmHg 96%
23:00 +14°C° 0.2 mm 4 mps 747 mmHg 96%
Show more